Spokane, WA
on Tuesday, November 27, 2012

Tuesday
Previous Day Next Day
Daily Summary
 ActualAverageRecord
Temperature
Mean Temperature °F 31°F  
Max Temperature 39°F 36°F 57°F (1949)
Min Temperature 29°F 27°F -12°F (1985)
Degree Days
Heating Degree Days 31 34  
Month to date heating degree days 702 776  
Since 1 July heating degree days 1308 1564  
Cooling Degree Days 0 0  
Month to date cooling degree days 0 0  
Year to date cooling degree days 535 450  
Moisture
Dew Point 28°F   
Average Humidity 85    
Maximum Humidity 100    
Minimum Humidity 70    
Precipitation
Precipitation 0.00 in 0.08 in 1.04 in (1996)
Month to date precipitation 2.85 2.04  
Year to date precipitation 18.35 14.00  
Snow
Snow 0.00 in 0.40 in 7.10 in (1984)
Month to date snowfall 5.9 6.2  
Since 1 July snowfall 5.9 6.3  
Since 1 September snowfall 5.9 6.3  
Snow Depth 0.00 in   
Wind
Wind Speed 5 mph   
Max Wind Speed 10 mph   
Max Gust Speed 13 mph   
Visibility 10 miles   
Events     

Key: T is trace of precipitation, MM is missing value
Source: NWS Daily Summary
Time(PST)TemperatureDew PointHumidity Pressure Visibility Wind DirectionWind SpeedGust SpeedPrecipitationEvents Conditions
12:53 AM 28.9°F 28.0°F 96% 30.24 in 10.0 miles North 4.6 mph - N/A   Overcast
1:53 AM 28.9°F 28.0°F 96% 30.24 in 10.0 miles Calm Calm - N/A   Overcast
2:53 AM 28.9°F 27.0°F 92% 30.23 in 10.0 miles NNE 4.6 mph - N/A   Overcast
3:53 AM 28.9°F 27.0°F 92% 30.23 in 10.0 miles NNE 3.5 mph - N/A   Overcast
4:53 AM 28.9°F 27.0°F 92% 30.24 in 10.0 miles NE 4.6 mph - N/A   Overcast
5:53 AM 30.0°F 27.0°F 88% 30.24 in 10.0 miles NNE 3.5 mph - N/A   Overcast
6:53 AM 30.0°F 28.0°F 92% 30.25 in 10.0 miles North 4.6 mph - N/A   Overcast
7:53 AM 30.0°F 27.0°F 88% 30.25 in 10.0 miles NE 5.8 mph - N/A   Overcast
8:53 AM 30.9°F 28.0°F 89% 30.26 in 10.0 miles NNE 5.8 mph - N/A   Overcast
9:53 AM 32.0°F 28.0°F 85% 30.26 in 10.0 miles NNE 3.5 mph - N/A   Overcast
10:53 AM 33.1°F 28.0°F 82% 30.25 in 10.0 miles NE 8.1 mph - N/A   Mostly Cloudy
11:53 AM 35.6°F 28.4°F 75% 30.16 in 10.0 miles NE 9.2 mph - N/A   Mostly Cloudy
12:53 PM 37.0°F 28.9°F 73% 30.21 in 10.0 miles NE 9.2 mph - N/A   Mostly Cloudy
1:53 PM 37.9°F 28.9°F 70% 30.18 in 10.0 miles NE 8.1 mph - N/A   Mostly Cloudy
2:53 PM 37.0°F 28.9°F 73% 30.19 in 10.0 miles NE 5.8 mph - N/A   Mostly Cloudy
3:53 PM 36.0°F 30.0°F 79% 30.17 in 10.0 miles NNE 6.9 mph - N/A   Mostly Cloudy
4:53 PM 33.1°F 28.0°F 82% 30.17 in 10.0 miles NNE 3.5 mph - N/A   Mostly Cloudy
5:53 PM 33.1°F 28.0°F 82% 30.15 in 10.0 miles NE 6.9 mph - N/A   Mostly Cloudy
6:53 PM 32.0°F 28.0°F 85% 30.15 in 10.0 miles NE 5.8 mph - N/A   Mostly Cloudy
7:53 PM 32.0°F 28.0°F 85% 30.15 in 10.0 miles NE 3.5 mph - N/A   Overcast
8:53 PM 30.9°F 28.0°F 89% 30.15 in 10.0 miles NE 3.5 mph - N/A   Overcast
9:53 PM 30.9°F 27.0°F 85% 30.14 in 10.0 miles NE 4.6 mph - N/A   Overcast
10:53 PM 30.9°F 27.0°F 85% 30.13 in 10.0 miles NE 5.8 mph - N/A   Mostly Cloudy
11:53 PM 30.9°F 27.0°F 85% 30.12 in 10.0 miles NE 5.8 mph - N/A   Overcast
Moon Phase
Nov. 27 Nov. 28 Dec. 06 Dec. 13 Dec. 20
Sunrise:07:13 AM (PST) Moon Rise:03:38 PM (PST)11/27
Sunset:04:02 PM (PST) Moon Set:06:20 AM (PST)11/27

Copyright © 2014 The Weather Underground, Inc.